Theta_e
336 343 347 349 349 350 350 348 347 343 342 344 344 343 342 341 341 340 340 339 339 339 339 338 338 338 338 337 336 335 334 334 336 337 339 342 342 340 337 337 338 335 340
339 344 345 347 348 346 348 347 345 343 345 344 342 342 341 341 340 340 339 338 338 338 338 338 338 338 337 337 336 335 334 333 332 333 335 341 340 338 338 339 340 337 340
340 343 344 345 346 344 342 345 344 344 344 342 340 340 340 340 339 338 338 338 337 337 338 338 338 338 337 336 336 335 334 333 334 336 336 331 333 340 340 339 339 339 339
341 342 342 343 345 345 345 344 344 343 343 342 340 339 338 338 338 338 337 337 337 337 338 338 338 338 337 337 336 335 334 335 337 337 332 333 335 339 339 339 338 337 337
340 341 341 342 345 345 344 343 343 342 342 342 339 338 337 338 337 337 337 336 336 337 338 338 338 338 338 337 337 336 335 336 335 333 331 330 331 337 338 337 335 334 332
339 340 340 343 344 344 343 343 342 342 339 337 340 338 338 338 336 337 335 336 337 337 337 338 338 338 338 337 336 335 335 336 334 330 330 334 331 337 337 335 333 330 328
338 339 339 341 343 343 343 342 342 340 337 338 336 338 337 337 336 335 334 336 336 337 337 338 339 338 338 337 336 334 334 335 331 328 328 328 333 337 337 334 331 328 326
338 338 339 336 339 340 341 341 340 339 337 338 339 336 337 336 334 334 335 336 336 336 338 338 338 338 337 335 334 333 332 331 330 327 326 326 334 335 335 332 327 325 324
338 338 338 338 336 334 336 337 338 338 334 334 337 335 335 334 337 336 336 336 336 337 338 338 339 337 336 334 333 331 331 329 327 326 324 324 332 334 332 329 325 324 323
338 338 336 336 336 335 334 331 332 334 333 333 331 331 329 332 333 333 332 335 337 337 337 337 336 335 334 333 332 329 327 327 325 322 322 324 332 332 331 328 324 323 321
336 336 336 335 334 334 333 329 328 330 330 328 328 327 326 330 329 328 328 333 336 337 336 337 334 333 331 329 329 328 325 325 323 320 321 327 330 329 330 328 325 322 320
331 334 335 335 334 334 334 329 329 329 328 326 327 327 326 328 326 327 324 328 331 331 335 336 333 329 324 322 322 325 322 319 318 317 319 327 328 329 329 326 324 322 320
329 332 335 334 334 333 332 330 329 328 326 327 326 326 327 325 322 321 322 324 323 325 328 329 327 323 322 320 320 320 316 314 313 313 318 325 325 328 328 326 323 321 318
327 329 334 334 334 333 332 330 329 327 325 323 326 326 322 320 321 321 321 322 322 326 323 323 318 317 318 319 318 317 313 312 311 311 313 320 325 328 328 325 322 319 317
326 327 330 334 333 333 331 331 328 325 324 323 325 326 322 322 322 324 323 324 325 328 327 317 315 316 317 316 315 315 312 311 310 309 309 316 324 327 326 324 321 318 316
327 327 326 330 333 333 331 330 329 325 323 322 325 324 322 324 322 323 326 327 328 329 321 316 314 315 313 313 312 312 311 310 309 307 306 309 318 323 322 321 318 316 314
326 327 326 328 333 332 331 330 329 325 323 321 324 322 324 325 324 325 327 325 323 319 316 312 313 311 309 309 307 307 308 309 308 306 304 302 304 313 316 316 315 313 311
326 327 327 329 330 330 330 330 328 326 324 322 324 324 324 325 325 324 324 321 318 315 313 311 310 307 305 304 302 302 303 304 305 306 303 300 299 300 307 310 309 309 308
327 327 327 327 328 329 329 329 327 324 322 320 324 324 324 325 324 320 321 319 316 313 311 311 307 306 303 301 301 299 299 301 301 298 295 295 296 295 295 302 302 303 304
327 327 327 328 329 329 328 327 325 321 321 320 323 325 325 323 322 319 318 318 316 311 311 309 307 303 301 299 299 297 297 298 297 295 293 293 292 291 291 291 289 291 298
325 326 327 326 328 328 326 323 321 318 318 319 322 324 323 322 319 318 316 315 312 310 310 309 306 301 296 296 294 293 294 296 296 293 292 290 290 289 288 287 286 286 288
323 325 326 326 327 328 325 325 322 319 319 320 322 323 322 318 316 315 314 310 309 306 306 307 303 298 295 296 293 291 288 290 292 293 291 291 288 288 287 287 285 285 284
322 323 326 326 327 326 323 322 320 320 320 319 320 318 318 316 313 314 312 309 306 306 305 306 301 300 294 295 296 295 289 288 288 291 291 290 288 286 286 286 285 285 284
322 323 324 326 326 326 324 321 318 318 316 318 317 313 314 312 310 309 308 307 305 304 304 305 302 301 297 293 294 297 296 294 290 287 289 289 288 287 286 286 284 284 284
322 322 324 326 326 325 324 323 321 319 319 316 313 309 306 305 306 305 305 304 303 304 303 303 301 301 298 295 295 294 294 292 291 289 286 286 288 288 288 287 286 284 283
321 322 323 324 325 325 324 323 321 320 318 313 313 309 304 301 301 301 301 302 302 301 302 303 303 302 300 298 296 293 291 289 289 288 287 286 285 287 288 286 286 285 284
Wind_Speed
12 14 20 20 20 20 20 20 19 18 19 17 18 18 18 17 17 17 16 16 17 16 16 17 17 16 15 15 15 14 11 10 10 11 12 14 15 15 14 13 9 8 16
16 17 21 20 19 20 19 18 18 18 20 18 18 17 17 17 17 16 16 16 16 16 17 16 16 16 14 13 12 11 8 7 8 7 7 13 15 15 14 14 15 14 18
18 17 17 20 19 20 21 19 18 18 19 20 17 17 17 16 16 16 15 15 15 16 16 16 15 14 13 12 10 7 7 7 6 3 5 0 6 16 16 16 18 20 21
19 16 15 19 19 18 19 19 18 18 17 19 17 16 16 15 15 15 15 15 14 15 15 15 14 14 13 12 9 6 7 7 8 11 6 5 9 17 17 19 20 21 21
19 16 14 17 19 18 18 19 19 17 17 18 17 18 16 16 16 15 14 14 14 14 14 14 14 13 12 9 7 8 6 7 10 8 8 6 5 15 19 21 20 21 21
19 16 16 19 19 19 19 18 19 17 18 18 19 17 17 16 15 13 14 13 13 13 13 14 13 12 10 8 6 8 7 7 11 8 8 8 7 18 18 19 20 20 19
18 16 16 19 19 19 19 18 17 17 18 18 19 17 17 16 15 14 14 13 12 12 13 13 12 11 9 7 6 7 9 13 9 7 9 5 9 17 19 20 20 18 17
18 18 16 17 18 18 19 17 16 16 19 17 16 17 17 16 15 14 13 12 12 11 12 12 11 11 9 6 5 7 6 10 11 9 7 5 12 14 18 19 16 18 17
18 18 15 15 15 14 14 14 14 15 18 18 15 16 15 15 13 13 12 12 11 11 11 10 11 11 9 5 6 7 13 12 8 7 6 4 10 15 16 17 16 17 16
17 17 15 14 13 12 11 13 12 12 14 15 18 14 14 11 12 11 10 10 12 11 10 11 11 9 8 6 8 8 11 12 9 6 4 5 11 13 16 16 14 14 15
14 17 16 14 12 11 10 10 11 12 13 17 14 12 12 5 6 7 7 10 10 9 9 10 10 8 6 6 9 7 7 5 6 4 3 9 9 12 16 17 15 13 13
17 17 16 15 13 12 10 9 7 7 5 8 10 8 5 6 5 6 7 9 10 8 8 10 10 7 5 3 4 5 4 6 5 5 3 7 9 12 15 16 16 13 11
18 14 16 15 14 13 10 7 5 4 4 5 8 6 6 5 4 4 3 3 4 6 3 5 5 2 3 1 4 6 6 5 4 3 4 3 7 11 14 16 14 14 9
17 17 17 17 14 13 9 8 7 6 5 4 6 9 4 4 5 5 4 5 4 3 5 5 3 5 4 4 7 7 6 5 4 3 4 5 4 11 14 14 12 11 9
15 16 17 17 16 13 13 9 8 7 7 7 7 8 5 6 7 7 6 5 5 5 5 4 5 4 5 6 6 8 7 7 6 3 3 10 7 10 13 13 11 9 9
13 12 13 15 15 15 13 14 10 8 7 8 8 8 7 7 6 6 5 5 6 6 5 5 5 4 4 5 6 7 6 6 7 6 4 5 12 10 11 10 8 7 6
13 12 11 9 15 16 15 13 10 10 8 6 8 9 8 7 6 6 7 5 4 5 7 5 5 5 5 4 6 5 5 6 6 7 4 4 5 10 8 8 7 6 5
12 14 13 10 12 14 14 11 10 10 9 7 7 8 8 7 7 5 6 5 6 6 6 6 5 4 5 5 4 4 4 5 5 5 4 3 4 4 6 8 7 6 5
15 15 13 12 14 14 13 10 10 10 9 7 7 7 8 7 9 7 7 6 6 6 5 6 3 6 4 4 5 4 3 4 4 5 5 5 5 4 3 6 5 4 4
15 16 15 13 13 13 11 10 8 7 7 6 8 8 10 6 9 8 6 8 6 6 6 4 6 3 4 5 5 4 2 2 3 4 5 4 4 5 5 4 3 1 3
13 15 18 16 12 12 10 10 10 10 8 7 7 10 9 9 9 9 6 8 6 7 9 9 5 8 3 4 4 2 2 1 4 4 4 4 5 5 6 5 4 3 2
16 16 16 17 13 11 10 8 8 9 8 8 7 7 8 10 10 9 9 8 8 5 8 9 8 5 3 5 4 3 3 3 3 5 4 5 6 5 5 6 6 6 4
18 19 17 18 17 14 12 9 7 5 4 3 5 3 6 9 8 10 9 8 7 6 8 10 9 9 5 6 5 5 3 5 2 2 6 5 6 5 5 6 6 6 6
17 15 17 15 16 15 14 11 12 11 10 5 5 4 6 7 7 6 8 7 8 5 7 9 8 6 5 7 1 6 2 4 4 2 3 5 5 7 7 5 6 7 7
18 16 15 15 15 14 15 14 12 11 8 4 4 7 4 4 5 6 7 7 7 6 6 9 9 9 5 5 4 3 2 2 2 3 4 3 2 5 7 8 8 7 7
15 16 15 16 15 15 15 15 15 16 12 8 8 8 6 4 4 5 6 7 7 7 9 9 9 10 8 4 4 4 4 4 4 3 3 3 4 5 6 5 7 7 7
Wind_Direction
159 157 150 152 147 143 145 141 134 135 138 136 126 121 119 118 117 116 115 114 110 109 105 102 99 94 91 91 93 94 96 100 93 78 65 65 88 72 70 75 70 72 71
148 153 150 153 153 150 140 138 138 140 139 135 131 130 128 125 122 120 119 115 113 111 106 104 101 99 96 94 95 99 105 96 82 73 52 66 81 77 78 74 78 78 73
146 149 149 152 156 156 153 141 142 144 142 139 142 137 136 131 128 125 122 118 116 113 110 107 103 100 101 100 97 101 90 72 62 69 128 190 84 86 86 85 81 77 74
144 148 150 151 156 154 146 144 147 148 151 143 142 144 142 137 134 128 126 120 119 115 111 107 103 101 100 102 101 84 70 54 29 70 89 71 81 88 87 85 82 74 66
143 148 148 151 153 151 148 147 147 149 157 146 145 145 139 141 136 133 127 123 120 118 112 107 102 101 100 98 94 71 36 39 73 83 82 75 73 91 91 84 78 73 69
144 146 147 150 153 153 152 153 156 164 152 153 142 149 142 141 140 137 130 124 121 118 114 110 106 105 105 102 81 62 25 70 98 85 79 78 90 96 94 91 84 77 71
146 144 148 151 154 155 154 157 159 155 156 153 152 151 150 144 145 141 135 129 125 121 118 115 114 113 111 101 74 64 41 95 98 93 84 71 93 97 98 91 84 78 78
142 147 150 150 153 158 155 156 158 156 159 153 154 153 152 150 151 146 139 132 130 128 124 120 123 122 115 108 96 72 80 97 97 94 90 80 86 101 101 94 87 81 79
145 145 151 153 153 156 153 154 156 159 162 162 153 157 156 157 147 137 142 138 136 134 126 125 130 119 118 119 95 64 102 104 108 99 96 88 100 109 105 96 93 90 85
146 147 151 152 155 156 157 150 154 159 159 163 164 158 157 143 128 138 142 143 139 137 127 113 114 122 128 138 96 90 99 100 98 97 89 86 103 116 113 107 106 88 88
150 150 153 155 157 153 151 154 154 157 159 167 164 148 156 136 137 146 150 141 138 143 142 139 132 133 146 133 122 112 96 102 101 86 81 105 122 124 118 112 101 97 92
157 154 157 158 158 155 156 152 149 151 159 159 168 157 148 146 152 160 156 148 147 148 138 138 139 148 141 138 120 118 91 96 88 83 54 118 129 133 130 123 114 101 94
159 154 159 160 160 160 156 155 154 146 145 140 145 154 158 159 154 142 142 146 148 149 148 129 124 154 264 167 115 108 99 97 86 70 46 89 149 141 138 129 118 114 99
168 155 162 164 163 162 153 158 157 160 153 149 162 171 162 155 155 158 165 174 168 165 151 136 143 148 117 133 110 121 112 102 92 72 37 43 161 141 144 131 124 118 107
174 160 164 167 167 160 156 152 159 166 168 169 170 183 159 172 167 167 180 170 171 177 151 133 135 123 106 95 94 121 118 112 102 80 55 45 114 146 142 127 123 116 110
175 173 153 171 162 159 161 163 166 166 177 170 175 185 171 177 172 179 176 177 170 158 144 138 141 127 112 106 95 107 122 119 112 99 66 49 60 97 120 122 111 116 124
172 168 160 144 157 159 162 163 168 172 175 177 176 179 176 171 180 161 164 146 132 129 131 119 111 114 106 99 101 97 110 124 125 121 106 78 62 62 99 109 130 129 137
177 178 174 150 154 158 160 165 164 173 171 185 180 175 177 176 161 160 140 142 151 138 131 132 136 115 117 116 113 96 96 97 113 130 125 116 84 68 87 118 133 142 143
185 183 184 165 161 162 158 160 162 168 171 179 175 184 185 174 156 152 151 158 157 138 140 146 135 138 136 124 120 103 100 111 115 109 110 121 131 121 107 130 120 132 154
181 182 188 190 165 168 164 159 157 167 180 173 177 177 184 159 160 150 158 158 153 147 148 145 146 126 138 138 114 105 106 105 127 140 144 138 149 154 152 148 138 180 175
182 179 182 185 168 172 172 166 163 175 173 185 185 179 179 160 157 151 159 157 160 167 163 160 135 138 96 129 96 48 14 196 174 184 164 168 173 174 177 181 184 200 222
185 188 186 184 170 177 169 174 174 174 177 182 187 184 160 158 159 153 165 172 172 159 146 158 149 137 121 188 137 118 196 293 247 198 184 188 197 188 192 195 189 191 192
192 186 185 185 181 176 168 158 158 136 119 133 181 149 161 160 168 158 168 177 176 167 169 171 162 165 152 208 194 153 143 221 157 196 214 199 195 199 203 197 199 198 197
199 188 191 182 182 182 170 174 175 178 182 186 166 152 162 157 160 161 163 176 177 171 167 177 171 172 132 175 193 230 209 152 181 220 254 221 201 203 204 207 203 206 201
180 183 184 182 179 181 177 181 186 188 186 154 141 147 135 134 163 167 170 173 178 180 173 174 169 177 168 156 178 146 154 211 199 149 227 244 252 227 217 209 202 205 207
189 183 185 175 181 181 181 184 184 186 178 163 168 167 172 165 172 186 184 184 189 181 176 186 184 183 181 166 171 177 164 173 192 193 221 205 210 238 221 214 211 208 203